Tracking 25612 objects as of 19-May-2022
HD Live streaming from Space Station
objects crossing your sky now

COSMOS 2251 DEB

Track COSMOS 2251 DEB now!
10-day predictions


NORAD ID: 40228
Int'l Code: 1993-036BVH
Perigee: 757.7 km
Apogee: 793.4 km
Inclination: 74.1 °
Period: 100.2 minutes
Semi major axis: 7146 km
RCS: Unknown
Launch date: June 16, 1993
Source: Commonwealth of Independent States (former USSR) (CIS)
Launch site: PLESETSK MISSILE AND SPACE COMPLEX (PKMTR)

Note: This is SATELLITE DEBRIS
aabbcc
Your satellite tracking list
Your tracking list is empty




NASA's NSSDC Master Catalog

Two Line Element Set (TLE):
1 40228U 93036BVH 22138.73679087  .00000809  00000-0  28060-3 0  9996
2 40228  74.0547 142.1604 0024977 175.5861   1.2008 14.36998306401673
Source of the keplerian elements: AFSPC